Ketchikan, AK

7:26 PM AKDT on October 17, 2018 (GMT -0800)
Ketchikan International

Weather History for PAKT - May, 2018

Change the Weather History Date:

Thursday, May 17, 2018

  Actual Average Record
Temperature  
Mean Temperature 58 °F -  
Max Temperature 68 °F 55 °F 75 °F (2015)
Min Temperature 46 °F 40 °F 30 °F (2003)
Degree Days  
Heating Degree Days 7    
Growing Degree Days 8 (Base 50)    
Moisture  
Dew Point 42 °F    
Average Humidity 60    
Maximum Humidity 83    
Minimum Humidity 31    
Precipitation  
Precipitation 0.00 in - - ()
Sea Level Pressure  
Sea Level Pressure 30.11 in    
Wind  
Wind Speed 9 mph (NNW)    
Max Wind Speed 15 mph    
Max Gust Speed -    
Visibility 10 miles    
Events      
Averages and records for this station are not official NWS values.
T = Trace of Precipitation, MM = Missing Value Source: NWS Daily Summary

Daily Weather History Graph

Daily Weather History Graph

Search for Another Location

Airport or City:

Astronomy

May. 17, 2018 Rise Set
Actual Time 4:33 AM AKDT 8:54 PM AKDT
Civil Twilight 3:44 AM AKDT 9:43 PM AKDT
Nautical Twilight 2:28 AM AKDT 11:01 PM AKDT
Astronomical Twilight 1:15 AM AKDT 12:10 AM AKDT
Moon 6:42 AM AKDT (5/17) 11:38 PM AKDT (5/17)
Length of Visible Light 17h 59m
Length of Day
16h 20m
Waxing Crescent, 8% of the Moon is Illuminated
May 17
Waxing Crescent
May 21
First Quarter
May 29
Full
Jun 6
Last Quarter
Jun 13
New

Hourly Weather History & Observations

Time (AKDT) Temp. Dew Point Humidity Pressure Visibility Wind Dir Wind Speed Gust Speed Precip Events Conditions
12:53 AM 52.0 °F 41.0 °F 66% 30.17 in 10.0 mi NNW 9.2 mph - N/A   Clear
1:53 AM 51.1 °F 42.1 °F 71% 30.17 in 10.0 mi NNW 11.5 mph - N/A   Clear
2:53 AM 48.9 °F 42.1 °F 77% 30.16 in 10.0 mi NW 8.1 mph - N/A   Clear
3:53 AM 48.9 °F 42.1 °F 77% 30.16 in 10.0 mi NW 8.1 mph - N/A   Clear
4:53 AM 50.0 °F 42.1 °F 74% 30.16 in 10.0 mi North 11.5 mph - N/A   Clear
5:53 AM 50.0 °F 42.1 °F 74% 30.16 in 10.0 mi NNW 10.4 mph - N/A   Clear
6:02 AM 50.0 °F 42.1 °F 74% 30.15 in 10.0 mi North 11.5 mph - N/A   Clear
6:53 AM 51.8 °F 42.8 °F 71% 30.15 in 10.0 mi NNW 12.7 mph - N/A   Clear
7:53 AM 55.4 °F 41.0 °F 58% 30.14 in 10.0 mi NNW 12.7 mph - N/A   Clear
8:53 AM 57.2 °F 42.8 °F 59% 30.14 in 10.0 mi NNW 12.7 mph - N/A   Clear
9:53 AM 57.2 °F 42.8 °F 59% 30.13 in 10.0 mi NNW 15.0 mph - N/A   Clear
10:53 AM 59.0 °F 42.8 °F 55% 30.12 in 10.0 mi NNW 11.5 mph - N/A   Clear
11:53 AM 60.8 °F 42.8 °F 52% 30.12 in 10.0 mi NW 10.4 mph - N/A   Clear
12:53 PM 60.8 °F 41.0 °F 48% 30.12 in 10.0 mi NW 11.5 mph - N/A   Clear
1:53 PM 62.6 °F 42.8 °F 48% 30.11 in 10.0 mi NW 11.5 mph - N/A   Clear
2:53 PM 64.4 °F 39.2 °F 40% 30.10 in 10.0 mi NW 9.2 mph - N/A   Clear
3:53 PM 64.4 °F 39.2 °F 40% 30.09 in 10.0 mi NW 9.2 mph - N/A   Clear
4:53 PM 64.4 °F 41.0 °F 42% 30.08 in 10.0 mi NW 8.1 mph - N/A   Clear
5:53 PM 68.0 °F 36.0 °F 31% 30.07 in 10.0 mi Calm Calm - N/A   Clear
6:53 PM 66.2 °F 42.8 °F 43% 30.06 in 10.0 mi ESE 3.5 mph - N/A   Clear
7:53 PM 62.6 °F 44.6 °F 52% 30.05 in 10.0 mi Calm Calm - N/A   Clear
8:53 PM 57.2 °F 42.8 °F 59% 30.05 in 10.0 mi SSE 3.5 mph - N/A   Clear
9:53 PM 54.0 °F 44.1 °F 69% 30.04 in 10.0 mi Calm Calm - N/A   Clear
10:53 PM 48.0 °F 43.0 °F 83% 30.04 in 10.0 mi Calm Calm - N/A   Clear
11:53 PM 46.0 °F 41.0 °F 83% 30.04 in 10.0 mi Calm Calm - N/A   Clear